Voltar ao catálogo

DMSP 5D-3 F16

USA 172

AtivoMeteoSSO
NORAD 28054·PAYLOAD·🇺🇸 United States

Lançado Oct 18, 2003 de Vandenberg Space Force Base

Loading…

Próximas Passagens (próximas 24 horas)

TLE

AtualizadoSource: Space-Track

Época: Sep 14, 2026, 22:34 UTC

1 28054U 03048A   26257.94038521  .00000023  00000-0  35872-4 0  9992
2 28054  98.9864 282.3509 0006016 250.0113 228.7357 14.14490546182170

Acompanhe DMSP 5D-3 F16 em tempo real com AllMySat

Download on the App Store